Find OneWeb SL0124

NORAD ID: 47276 Int'l Des: 2020-100 Owner: ONEWEB Country: UK Constellation: oneweb operational
LEOCIRCULARPOLARONEWEB_TYPE

当前视图

正在加载3D地球...

About OneWeb SL0124

OneWeb SL0124 (NORAD 47276) is a oneweb constellation satellite launched Dec 18, 2020 by ONEWEB of UK. It operates in LEO, CIRCULAR, POLAR, ONEWEB_TYPE orbit with a mass of 148.00 kg.

关于 OneWeb SL0124

正在加载描述...

即将过境

Passes for default location (London). Set your location on the main map for personalized predictions.

高度历史

Loading altitude history...

两行轨道根数

1 47276U 20100U 26171.46806709 .00000106 00000-0 26066-3 0 9996
2 47276 87.8950 349.9996 0001775 94.8621 265.2710 13.12444472265079
Epoch: Jun 20, 2026 • Age: 18 hours

当前状态

高度 1243.3 km
速度 7.23 km/s
星下点 -80.86°S, 161.83°W
发射日期 Dec 18, 2020
运行时间 5.5 years
类型 internet

技术详情

分类 Payload
质量 148.00 kg
干质量 140.00 kg
总质量 148.00 kg
长度 1.30 m
直径 1.00 m
跨度 5.00 m
形状 Trapezoid+2 pan
制造商 ONEWUS
平台类型 ARROW
阶段状态 In Orbit
所有者/国家 ONEWEB/UK

Most Searched